TITAN 3C TRANSTAGE DEB, 3454

Orbit data source: Space-Track

TITAN 3C TRANSTAGE DEB, 3454 is space debris in LEO originally from a launch on Fri, 15 Oct 1965 UTC launched from the Air Force Eastern Test Range (AFETR). Debris objects in space refer to the collection of defunct objects orbiting the Earth. Examples of debris include non-operational satellites, rocket bodies, and fragments generated from explosions, collisions, or faulty payload assembly.

Loading next visibility...
Identifier
3454, 1965-082PP
Orbit
LEO
Country
Flag of USUS
Related business
Manufacturer
Unknown
Mission
Spacecraft
Bus & Motor
Unknown
Mass
Unknown
Launch date (UTC)
1965-10-15 (60 years ago)
Launch vehicle
Unknown
Launch site
Air Force Eastern Test Range (AFETR)
Object type
Payload
Rocket body
Debris
Shape & HBR
Unknown shape, 0.1 m
Radar Cross Section
Small (<0.1 m²)

Expand to show TLE details & history
Last TLE update: 8 hours ago

TLE from 8 hours ago
0 TITAN 3C TRANSTAGE DEB
1 03454U 65082PP  26105.25270034  .00004034  00000-0  23025-3 0  9990
2 03454  32.2598  75.3810 0013264  40.6024 319.5625 15.11315825236355
Epoch: 2026-04-15T06:03Z
TLE epoch observation values (Epoch: 2026-04-15T06:03:53.309Z)
Latitude
-0.00001°
Longitude
140.99161°
Altitude
523.85 km
Speed
7.608 km/s
True Right ascension
05h 01m 31s
True Declination
0° 00' 00"
Sunlit
Object was in daylight at epoch
Visualization orbit readout
Latitude
Unknown
Longitude
Unknown
Altitude
Unknown
Speed
Unknown
Apparent Right ascension
Unknown
Apparent Declination
Unknown
Sunlit
N/A
Visualization observer readout
Local Sidereal Time
20:49:30
Azimuth
Unknown
Elevation
Unknown
Doppler factor
Unknown
Orbital elements
Apogee altitude
545.012 km
Perigee altitude
526.671 km
Semi-major axis
6,913.978 km
Eccentricity
0.00133
Inclination
32.2598°
RAAN
75.381°
Arg. of periapsis
40.6024°
True anomaly
319.46379°
Mean anomaly
319.5625°
Eccentric anomaly
319.51316°
Mean motion
3.7753 °/min
Orbital period
95.36 mins
BSTAR
0.00023025

Documentation

Showing up to 5 results
|